Theta_e
352 352 352 351 351 351 349 350 350 350 352 350 353 353 352 351 351 352 350 351 355 352 350 350 349 350 348 349 348 351 349 346 346 347 348 349 349 348 351 350 347 346 347
352 352 353 353 352 352 351 350 349 350 352 353 349 352 352 351 351 352 353 351 353 352 352 349 349 348 350 349 351 348 347 346 347 348 349 349 349 349 355 351 352 349 347
352 352 353 354 353 352 352 352 350 349 348 352 352 352 352 353 352 352 353 352 351 352 349 347 349 349 348 350 352 349 349 351 351 349 350 350 351 352 349 345 346 351 349
351 351 352 353 354 354 353 353 353 352 351 351 351 349 345 350 352 351 352 350 352 351 350 349 348 349 349 352 351 351 349 348 349 350 350 349 346 347 344 350 350 349 349
352 353 353 353 354 354 354 353 353 352 352 350 350 351 352 352 350 350 350 353 351 351 353 351 350 350 351 349 347 349 351 349 350 349 346 345 344 344 343 346 349 348 346
353 354 354 352 353 354 353 352 352 352 351 351 351 350 351 351 349 351 351 353 352 352 352 351 351 352 347 348 343 342 343 343 347 349 342 340 337 346 348 346 345 344 345
350 351 353 352 353 353 354 354 352 350 350 352 351 350 350 350 349 350 349 350 351 350 351 351 350 350 350 347 343 343 344 344 343 342 340 342 345 343 342 341 341 342 341
343 352 352 354 354 352 354 354 352 352 349 350 351 351 349 350 351 348 348 346 349 351 351 349 350 350 348 346 346 348 346 344 343 341 338 339 340 340 341 339 338 339 339
348 351 351 353 353 354 353 351 351 353 353 349 351 350 350 351 351 349 347 349 350 348 348 350 348 350 347 342 346 349 346 344 342 339 339 341 340 339 339 339 340 339 339
346 350 352 350 351 352 353 354 352 351 352 353 351 350 349 349 349 350 348 349 347 347 349 347 342 345 344 344 344 347 346 345 343 341 341 339 338 337 336 336 335 334 333
347 347 349 348 348 347 350 350 351 351 351 350 352 351 351 351 349 346 346 346 348 348 347 344 346 345 344 345 343 343 343 344 342 340 338 337 336 336 335 334 333 331 330
347 344 347 349 347 348 348 349 349 349 350 350 352 352 352 351 349 346 344 345 347 348 346 345 344 345 344 342 342 341 341 341 338 337 336 336 335 333 332 330 326 324 322
347 343 348 344 342 344 346 346 346 347 350 350 352 352 351 348 346 345 346 346 346 345 343 343 343 342 342 341 340 339 336 335 335 334 334 333 331 326 324 322 320 319 320
345 345 345 344 342 344 343 343 343 343 345 346 348 350 349 347 346 346 345 344 342 342 342 342 342 340 336 335 334 334 333 332 330 328 326 324 323 322 319 318 319 320 320
342 342 343 341 342 341 338 337 337 337 338 341 342 342 342 343 345 344 343 342 341 341 342 340 336 332 331 330 329 329 327 325 324 324 321 319 319 319 319 318 318 319 320
339 339 342 341 340 339 337 337 337 337 338 339 338 340 341 340 341 342 342 341 340 340 334 331 328 325 323 322 323 322 321 320 319 319 318 318 317 316 317 317 317 317 317
337 340 338 339 337 336 335 335 334 333 333 335 337 338 338 338 336 332 332 330 328 328 327 325 324 320 319 318 317 317 316 315 316 315 315 315 315 315 314 314 314 315 316
337 338 335 336 336 336 333 332 331 331 329 328 330 330 329 329 328 328 326 325 324 324 323 323 320 319 319 319 318 316 310 309 309 310 312 313 313 312 312 312 311 311 312
336 336 335 336 335 333 331 332 331 330 330 329 328 327 327 326 326 325 325 325 323 319 317 319 320 320 317 310 309 310 313 312 313 312 310 309 310 311 310 310 310 309 310
336 335 334 334 333 334 332 328 331 330 329 329 328 327 324 319 319 322 322 322 321 321 320 319 316 312 310 310 309 309 309 310 312 313 312 311 311 311 310 311 310 311 311
335 334 335 334 335 335 334 333 332 330 327 325 324 319 318 320 321 323 322 321 320 319 318 316 317 314 313 315 316 315 314 314 314 313 313 312 311 311 311 311 311 311 311
334 332 331 331 331 331 331 330 327 324 322 321 320 319 318 319 321 321 320 320 320 319 318 319 319 318 318 318 317 316 315 315 314 314 313 313 312 312 312 311 311 311 311
332 332 330 330 331 329 325 323 324 322 321 319 319 319 319 319 318 319 318 318 318 319 319 320 320 320 319 319 318 317 316 316 314 313 313 313 312 312 311 311 311 310 311
330 327 325 321 321 321 321 322 321 321 320 319 318 319 320 320 319 319 319 319 319 319 319 319 320 319 320 319 318 317 317 316 314 313 312 312 312 311 311 310 310 310 310
320 321 320 319 317 318 318 318 317 316 318 319 319 320 320 319 320 319 320 320 320 320 320 320 319 319 319 319 318 317 317 316 315 313 312 311 311 310 310 310 310 309 310
318 318 319 320 320 320 320 321 321 321 321 321 321 321 321 321 321 321 321 320 320 320 320 319 319 319 319 318 318 318 317 315 315 311 312 312 311 311 310 310 309 309 309
Wind_Speed
20 19 18 17 17 17 17 16 16 10 8 12 11 12 11 11 11 12 12 8 7 8 8 8 8 8 6 8 11 9 7 7 9 13 12 16 9 9 6 9 9 11 9
20 20 18 18 18 17 18 19 18 17 15 16 16 13 13 13 13 14 11 10 11 9 9 8 9 7 9 10 10 12 11 12 12 14 13 11 13 15 5 7 3 5 15
21 21 20 19 19 20 19 19 20 20 21 19 18 17 15 13 14 15 16 14 13 11 10 12 10 9 12 11 14 12 11 9 9 10 12 11 10 12 13 14 10 7 12
21 22 22 22 21 21 20 22 21 22 23 24 23 23 21 17 17 16 16 15 16 14 12 13 12 12 13 13 15 13 13 13 11 12 11 13 15 11 10 10 10 5 8
21 20 22 24 23 23 25 24 24 24 23 25 24 22 18 19 17 21 18 16 16 16 13 13 13 16 16 19 16 13 14 11 12 13 11 10 11 11 10 8 9 10 8
16 21 23 26 25 25 25 23 24 27 26 25 24 26 25 20 19 22 19 14 14 14 15 14 14 17 19 17 14 15 16 15 11 8 10 10 10 7 7 6 8 7 6
15 19 20 24 25 26 25 26 25 25 27 26 25 25 27 26 24 26 27 21 18 16 16 15 17 15 18 19 16 16 16 15 13 9 7 10 7 9 9 8 7 8 8
21 19 22 23 24 27 27 29 29 26 27 30 28 26 27 26 25 26 28 25 20 19 18 16 18 17 17 15 15 13 13 14 13 13 13 16 13 12 9 8 8 8 6
22 19 18 17 20 24 29 32 31 29 28 29 31 29 27 26 25 26 27 24 21 22 20 18 22 15 19 16 15 13 10 15 14 16 19 15 12 8 5 1 2 4 3
17 19 18 18 21 23 26 29 31 33 33 30 30 31 31 29 26 28 26 21 20 18 24 26 21 22 20 17 16 15 14 18 17 11 11 11 8 6 3 3 3 0 3
14 15 18 21 20 21 23 25 29 33 34 35 34 31 29 28 29 26 25 24 19 23 27 25 24 21 20 17 19 18 15 17 12 11 8 5 3 3 2 3 3 1 4
14 15 13 16 18 16 18 22 24 27 30 32 31 29 28 29 29 23 23 23 24 23 25 23 21 17 17 15 10 9 10 11 6 5 3 2 1 2 3 3 2 2 1
13 12 15 15 13 14 13 15 16 22 25 33 32 31 32 30 27 25 26 24 22 23 20 17 16 12 11 11 10 9 8 8 7 5 4 2 2 5 7 9 8 10 7
12 14 16 16 12 11 12 14 13 14 13 19 25 29 28 25 23 22 23 21 19 19 17 15 14 12 12 13 15 13 10 10 10 9 9 8 7 4 3 3 2 4 5
13 12 15 14 12 11 12 12 13 13 14 16 18 17 15 16 20 21 23 23 21 19 19 18 17 17 17 17 16 17 14 13 11 8 7 7 5 2 2 0 1 2 2
14 14 15 13 11 11 11 12 14 15 17 18 15 13 13 15 16 23 27 24 25 25 23 26 26 21 17 19 14 14 11 10 10 8 5 6 4 4 2 3 3 2 1
11 16 15 12 10 6 4 4 5 2 3 7 11 12 11 15 17 17 21 24 28 28 25 23 21 18 16 12 10 10 9 7 8 7 7 6 7 1 3 2 1 1 1
12 15 12 11 10 11 13 17 21 23 28 29 25 26 27 30 30 29 28 30 26 22 20 18 15 14 15 14 13 9 7 7 6 5 6 4 3 3 2 3 2 2 1
14 14 14 17 23 23 21 23 24 28 32 34 32 29 27 25 21 19 17 15 18 18 18 17 15 14 12 11 9 9 7 7 7 5 3 4 5 4 4 3 5 7 6
16 21 19 22 21 17 18 20 24 23 23 24 23 24 24 24 25 22 18 14 12 13 15 16 15 14 13 12 10 9 9 8 6 5 4 4 4 3 3 3 2 2 3
19 27 21 19 18 19 17 17 16 16 15 14 16 20 19 14 13 14 13 14 13 12 14 14 14 13 12 10 9 8 7 5 5 4 3 2 3 2 3 2 2 2 3
20 25 22 23 22 22 20 22 22 19 17 16 15 18 15 13 13 13 13 13 12 12 12 13 12 10 9 7 7 6 5 4 4 3 2 1 0 1 1 1 2 2 3
24 23 19 22 24 24 24 22 19 16 16 16 17 14 11 12 12 12 13 12 12 11 10 9 9 8 7 6 6 5 4 4 3 2 1 1 1 1 2 3 3 3 2
30 26 27 24 19 19 18 16 17 17 16 14 13 11 11 11 11 11 11 10 9 8 8 8 7 7 8 7 7 6 6 6 3 1 3 2 1 4 2 3 2 3 1
31 29 29 25 17 16 18 16 15 13 14 13 12 11 10 9 9 9 8 8 8 7 6 6 6 7 8 10 9 9 13 13 8 4 1 1 2 3 1 1 3 2 2
19 19 18 18 16 17 15 13 13 13 13 12 11 11 10 8 8 8 7 7 6 7 7 6 7 10 9 10 12 17 18 15 14 6 2 1 1 1 2 4 4 2 3
Wind_Direction
209 209 202 204 209 209 207 217 226 242 217 234 224 214 222 232 236 234 223 226 228 240 253 268 280 288 283 288 292 295 299 294 281 296 325 326 317 321 314 300 336 339 329
212 211 211 205 205 215 216 212 216 224 227 227 229 232 227 228 226 247 235 229 238 240 250 250 267 283 287 298 289 281 275 280 276 286 292 299 314 303 278 301 276 275 278
209 213 214 217 216 214 220 221 218 224 224 223 228 223 222 232 234 238 235 239 242 251 241 250 259 263 276 279 284 274 280 274 270 283 289 287 291 314 300 305 307 233 261
215 215 218 220 221 224 223 223 226 223 225 224 223 231 230 228 228 233 245 256 235 237 244 259 265 267 273 273 280 266 268 272 272 274 277 277 287 299 304 298 299 263 276
215 222 223 224 225 227 227 227 227 230 231 228 227 231 232 228 224 230 232 235 234 226 239 251 258 260 257 262 270 271 264 278 270 276 279 292 308 311 306 303 295 292 274
226 227 230 234 229 230 235 232 234 233 232 232 232 227 223 225 230 231 234 223 235 241 248 254 260 270 284 276 267 271 269 275 273 269 283 299 316 285 284 279 303 302 293
241 234 237 235 238 240 234 234 237 240 234 233 231 232 229 227 225 231 233 228 230 234 242 250 257 255 256 267 271 272 263 257 260 270 294 283 281 269 280 283 276 278 295
255 242 235 236 242 235 236 231 235 237 240 234 230 231 228 230 231 231 237 235 234 240 244 246 262 257 264 266 270 258 252 250 255 266 283 287 279 280 285 298 306 305 298
242 250 240 238 241 239 242 243 240 237 234 235 233 232 233 231 230 237 238 237 239 245 254 246 247 252 257 265 245 249 252 264 251 272 286 272 273 271 286 294 284 314 348
246 238 244 245 242 243 241 245 244 242 237 232 238 234 235 236 235 236 238 232 237 237 236 251 251 256 264 263 234 215 242 260 282 274 255 250 250 261 259 222 237 256 321
264 254 242 244 254 249 250 251 248 245 241 237 235 232 228 230 238 241 239 233 226 235 240 245 252 254 253 247 231 249 248 250 244 244 234 232 242 274 292 326 321 292 145
267 264 250 244 245 244 250 255 256 247 243 236 230 227 227 225 232 235 231 227 227 232 243 251 251 239 239 244 217 214 229 228 230 208 185 209 166 14 5 6 357 333 241
255 266 238 255 255 249 253 250 257 246 241 235 229 223 219 228 236 236 232 234 226 231 238 232 232 228 214 202 191 191 181 150 142 136 118 123 109 63 42 25 21 9 11
260 251 241 253 260 260 258 258 260 249 249 238 241 237 240 237 239 232 224 220 218 221 217 208 198 193 172 159 143 129 131 115 96 83 76 59 66 79 103 101 20 345 296
260 248 249 241 247 247 248 248 248 248 251 249 245 243 243 244 240 231 226 214 211 209 200 188 171 141 129 116 112 115 111 103 114 127 105 89 99 81 279 334 334 322 295
267 262 233 230 239 249 257 264 256 252 243 240 243 245 242 239 238 237 217 202 190 186 160 138 129 122 120 114 116 108 111 120 124 127 143 162 175 204 148 17 31 341 327
254 227 211 215 216 213 209 211 203 87 156 209 212 220 231 235 216 189 162 139 126 123 118 117 114 119 126 123 125 140 157 141 152 163 165 170 142 342 74 42 50 351 3
222 198 183 191 175 142 127 120 110 106 103 102 103 108 111 113 113 116 117 120 126 129 127 125 130 132 137 155 161 147 153 153 151 130 115 127 112 112 76 60 40 34 14
195 168 169 154 141 130 123 122 117 115 114 114 118 116 118 119 119 121 119 124 126 124 121 114 133 149 148 144 145 140 137 135 129 128 118 96 86 86 74 73 18 43 79
181 163 150 148 140 142 138 135 130 127 125 129 131 130 130 127 122 118 114 118 130 137 140 141 150 145 138 132 129 123 117 105 104 98 104 91 90 104 81 67 68 59 34
183 163 152 157 152 153 143 144 144 144 137 132 139 134 119 124 129 135 141 138 139 143 137 134 136 134 131 127 124 123 120 118 119 119 107 102 93 62 74 55 51 30 10
186 174 169 175 170 163 152 142 129 123 129 138 145 140 137 137 144 142 140 140 142 139 143 145 144 144 149 147 140 138 130 115 97 99 132 179 115 37 33 359 346 338 341
176 172 163 158 151 137 128 122 126 142 141 140 138 135 133 140 138 139 136 137 140 148 152 154 156 166 177 179 172 169 156 150 128 104 158 213 249 257 300 309 308 317 354
165 149 132 114 117 126 139 131 138 136 137 141 143 139 139 137 142 143 145 150 155 160 172 177 189 199 205 204 209 211 201 180 147 92 106 172 247 319 308 304 299 286 305
115 123 119 124 135 140 147 150 157 159 151 160 160 150 147 153 155 157 163 168 172 181 193 199 214 225 229 228 224 227 215 214 199 186 66 316 268 301 306 279 271 269 260
104 122 134 143 167 171 159 156 162 165 168 167 165 164 166 167 167 169 172 177 184 191 191 214 226 233 237 234 233 231 235 240 238 213 172 250 304 306 294 308 294 246 219